STARLINK-37376, 69378

Orbit data source: Space-Track

STARLINK-37376, 69378 is a payload satellite owned by SpaceX/Seattle (US) in LEO that was launched on Thu, 04 Jun 2026 UTC via an FALCON 9 launch vehicle from the Air Force Eastern Test Range (AFETR). Payload-class satellites include a variety of spacecraft equipped with specific instruments for various scientific and technological missions. These include communications satellites like Starlink; space stations such as the ISS; scientific satellites like the Hubble; Earth observation satellites from companies like Planet Labs, Umbra, and HawkEye 360; GPS; miniature CubeSats for education and research; and military/defense satellites.

Loading next visibility...
Identifier
69378, 2026-123AB
Orbit
LEO
Country
Flag of USUS
Related business
Manufacturer
SpaceX/Seattle
Mission
Operational spacecraft
Bus & Motor
STARLINK V2MO, Unknown motor
Mass
575 kg wet, ~530 kg dry
Launch date (UTC)
2026-06-04 (2 months ago)
Launch vehicle
FALCON 9
Launch site
Air Force Eastern Test Range (AFETR)
Object type
Payload
Rocket body
Debris
Shape & HBR
BOX + PAN, 17.7 m
Radar Cross Section
Large (>1 m²)

Expand to show TLE details & history
Last TLE update: 22 hours ago

TLE from 22 hours ago
0 STARLINK-37376
1 69378U 26123AB  26207.13466478 -.00155378  00000-0 -10296-2 0  9994
2 69378  53.1581  47.5695 0001718  38.8553 321.2591 15.75204753  8182
Epoch: 2026-07-26T03:13Z
TLE epoch observation values (Epoch: 2026-07-26T03:13:55.036Z)
Latitude
-0.00001°
Longitude
55.25323°
Altitude
344.065 km
Speed
7.704 km/s
True Right ascension
03h 10m 16s
True Declination
0° 00' 00"
Sunlit
Object was in daylight at epoch
Visualization orbit readout
Latitude
Unknown
Longitude
Unknown
Altitude
Unknown
Speed
Unknown
Apparent Right ascension
Unknown
Apparent Declination
Unknown
Sunlit
N/A
Visualization observer readout
Local Sidereal Time
14:29:48
Azimuth
Unknown
Elevation
Unknown
Doppler factor
Unknown
Orbital elements
Apogee altitude
345.465 km
Perigee altitude
343.155 km
Semi-major axis
6,722.447 km
Eccentricity
0.00017
Inclination
53.1581°
RAAN
47.5695°
Arg. of periapsis
38.8553°
True anomaly
321.24678°
Mean anomaly
321.2591°
Eccentric anomaly
321.25294°
Mean motion
3.93779 °/min
Orbital period
91.42 mins
BSTAR
-0.0010296
Loading maneuver chart data...
Computing Atmospheric mass density...
Loading historical data...
Loading historical data...
Loading historical data...
Loading historical data...
Loading historical data...
Loading historical data...
Loading historical data...

Documentation

Showing up to 5 results
|